Time,TemperatureF,DewpointF,PressureIn,WindDirection,WindDirectionDegrees,WindSpeedMPH,WindSpeedGustMPH,Humidity,HourlyPrecipIn,Conditions,Clouds,dailyrainin,SoftwareType,DateUTC
2013-09-26 00:24:00,54.0,52.0,29.86,South,178,0.0,0.0,92,0.00,,,0.00,,2013-09-26 04:24:00,
2013-09-26 00:54:00,53.0,51.0,29.87,South,178,0.0,0.0,92,0.00,,,0.00,,2013-09-26 04:54:00,
2013-09-26 01:23:00,53.0,51.0,29.86,South,178,0.0,0.0,92,0.00,,,0.00,,2013-09-26 05:23:00,
2013-09-26 01:43:00,53.0,51.0,29.86,South,178,0.0,1.0,92,0.00,,,0.00,,2013-09-26 05:43:00,
2013-09-26 01:52:00,53.0,51.0,29.86,South,178,0.0,0.0,92,0.00,,,0.00,,2013-09-26 05:52:00,
2013-09-26 02:13:00,53.0,51.0,29.87,South,178,0.0,1.0,92,0.00,,,0.00,,2013-09-26 06:13:00,
2013-09-26 02:22:00,53.0,51.0,29.87,South,178,0.0,0.0,92,0.00,,,0.00,,2013-09-26 06:22:00,
2013-09-26 02:42:00,52.0,50.0,29.87,South,178,0.0,0.0,92,0.00,,,0.00,,2013-09-26 06:42:00,
2013-09-26 02:53:00,52.0,50.0,29.87,South,178,0.0,0.0,93,0.00,,,0.00,,2013-09-26 06:53:00,
2013-09-26 03:12:00,52.0,50.0,29.86,South,178,0.0,0.0,93,0.00,,,0.00,,2013-09-26 07:12:00,
2013-09-26 03:22:00,52.0,50.0,29.86,South,178,0.0,1.0,93,0.00,,,0.00,,2013-09-26 07:22:00,
2013-09-26 03:42:00,52.0,50.0,29.86,South,178,0.0,0.0,94,0.00,,,0.00,,2013-09-26 07:42:00,
2013-09-26 03:53:00,51.0,49.0,29.86,South,178,0.0,1.0,94,0.00,,,0.00,,2013-09-26 07:53:00,
2013-09-26 04:11:00,51.0,49.0,29.86,South,178,0.0,0.0,94,0.00,,,0.00,,2013-09-26 08:11:00,
2013-09-26 04:22:00,51.0,49.0,29.86,South,178,0.0,0.0,94,0.00,,,0.00,,2013-09-26 08:22:00,
2013-09-26 04:42:00,51.0,49.0,29.87,South,178,0.0,0.0,94,0.00,,,0.00,,2013-09-26 08:42:00,
2013-09-26 04:52:00,51.0,49.0,29.87,South,178,0.0,0.0,94,0.00,,,0.00,,2013-09-26 08:52:00,
2013-09-26 05:11:00,51.0,50.0,29.87,South,178,0.0,0.0,95,0.00,,,0.00,,2013-09-26 09:11:00,
2013-09-26 05:22:00,51.0,50.0,29.87,South,178,0.0,0.0,95,0.00,,,0.00,,2013-09-26 09:22:00,
2013-09-26 05:43:00,51.0,50.0,29.88,South,178,0.0,0.0,95,0.00,,,0.00,,2013-09-26 09:43:00,
2013-09-26 05:53:00,51.0,50.0,29.88,South,178,0.0,0.0,95,0.00,,,0.00,,2013-09-26 09:53:00,
2013-09-26 06:12:00,50.0,49.0,29.88,South,178,0.0,1.0,95,0.00,,,0.00,,2013-09-26 10:12:00,
2013-09-26 06:23:00,50.0,49.0,29.88,South,178,0.0,1.0,95,0.00,,,0.00,,2013-09-26 10:23:00,
2013-09-26 06:42:00,51.0,50.0,29.88,South,178,0.0,1.0,95,0.00,,,0.00,,2013-09-26 10:42:00,
2013-09-26 06:53:00,51.0,50.0,29.88,South,178,0.0,1.0,95,0.00,,,0.00,,2013-09-26 10:53:00,
2013-09-26 07:12:00,51.0,50.0,29.89,South,178,0.0,3.0,95,0.00,,,0.00,,2013-09-26 11:12:00,
2013-09-26 07:22:00,51.0,50.0,29.89,South,178,0.0,1.0,95,0.00,,,0.00,,2013-09-26 11:22:00,
2013-09-26 07:42:00,52.0,51.0,29.90,South,178,0.0,0.0,95,0.00,,,0.00,,2013-09-26 11:42:00,
2013-09-26 07:52:00,52.0,51.0,29.90,South,178,0.0,1.0,95,0.00,,,0.00,,2013-09-26 11:52:00,
2013-09-26 08:12:00,54.0,53.0,29.91,South,178,0.0,2.0,95,0.00,,,0.00,,2013-09-26 12:12:00,
2013-09-26 08:22:00,55.0,54.0,29.91,South,178,0.0,1.0,95,0.00,,,0.00,,2013-09-26 12:22:00,
2013-09-26 08:42:00,58.0,56.0,29.91,South,179,0.0,2.0,93,0.00,,,0.00,,2013-09-26 12:42:00,
2013-09-26 08:52:00,59.0,57.0,29.91,South,178,0.0,1.0,93,0.00,,,0.00,,2013-09-26 12:52:00,
2013-09-26 09:12:00,61.0,57.0,29.91,NNE,14,3.0,5.0,87,0.00,,,0.00,,2013-09-26 13:12:00,
2013-09-26 09:22:00,62.0,58.0,29.91,NE,38,0.0,7.0,86,0.00,,,0.00,,2013-09-26 13:22:00,
2013-09-26 09:52:00,65.0,58.0,29.93,NE,40,3.0,8.0,79,0.00,,,0.00,,2013-09-26 13:52:00,
2013-09-26 10:11:00,66.0,58.0,29.93,North,11,2.0,8.0,76,0.00,,,0.00,,2013-09-26 14:11:00,
2013-09-26 10:22:00,67.0,58.0,29.93,NNE,18,1.0,4.0,74,0.00,,,0.00,,2013-09-26 14:22:00,
2013-09-26 10:42:00,68.0,59.0,29.93,NNW,347,2.0,6.0,74,0.00,,,0.00,,2013-09-26 14:42:00,
2013-09-26 10:52:00,67.0,58.0,29.93,North,355,3.0,7.0,73,0.00,,,0.00,,2013-09-26 14:52:00,
2013-09-26 11:11:00,68.0,59.0,29.94,North,360,1.0,7.0,72,0.00,,,0.00,,2013-09-26 15:11:00,
2013-09-26 11:22:00,68.0,58.0,29.94,NNE,31,2.0,7.0,70,0.00,,,0.00,,2013-09-26 15:22:00,
2013-09-26 11:44:00,67.0,57.0,29.94,North,10,2.0,9.0,70,0.00,,,0.00,,2013-09-26 15:44:00,
2013-09-26 11:53:00,67.0,58.0,29.94,North,11,0.0,7.0,72,0.00,,,0.00,,2013-09-26 15:53:00,
2013-09-26 12:13:00,67.0,58.0,29.94,NNE,28,2.0,9.0,72,0.00,,,0.00,,2013-09-26 16:13:00,
2013-09-26 12:24:00,68.0,59.0,29.94,NNE,33,0.0,5.0,73,0.00,,,0.00,,2013-09-26 16:24:00,
2013-09-26 12:43:00,68.0,59.0,29.95,North,360,2.0,8.0,72,0.00,,,0.00,,2013-09-26 16:43:00,
2013-09-26 12:53:00,69.0,59.0,29.95,NNE,28,0.0,4.0,71,0.00,,,0.00,,2013-09-26 16:53:00,
2013-09-26 13:12:00,70.0,59.0,29.94,ENE,59,0.0,5.0,68,0.00,,,0.00,,2013-09-26 17:12:00,
2013-09-26 13:23:00,70.0,58.0,29.94,NE,51,0.0,5.0,66,0.00,,,0.00,,2013-09-26 17:23:00,
2013-09-26 13:52:00,70.0,58.0,29.94,ENE,69,0.0,7.0,65,0.00,,,0.00,,2013-09-26 17:52:00,
2013-09-26 14:13:00,71.0,59.0,29.94,ENE,78,1.0,7.0,65,0.00,,,0.00,,2013-09-26 18:13:00,
2013-09-26 14:22:00,72.0,60.0,29.94,ENE,67,0.0,4.0,65,0.00,,,0.00,,2013-09-26 18:22:00,
2013-09-26 14:42:00,71.0,59.0,29.94,NNE,19,2.0,11.0,67,0.00,,,0.00,,2013-09-26 18:42:00,
2013-09-26 14:52:00,71.0,59.0,29.94,ESE,117,2.0,13.0,65,0.00,,,0.00,,2013-09-26 18:52:00,
2013-09-26 15:12:00,69.0,58.0,29.94,ESE,110,1.0,15.0,67,0.00,,,0.00,,2013-09-26 19:12:00,
2013-09-26 15:22:00,69.0,57.0,29.94,East,90,4.0,13.0,66,0.00,,,0.00,,2013-09-26 19:22:00,
2013-09-26 15:52:00,68.0,57.0,29.94,ENE,76,4.0,10.0,68,0.00,,,0.00,,2013-09-26 19:52:00,
2013-09-26 16:12:00,68.0,57.0,29.94,East,97,2.0,11.0,68,0.00,,,0.00,,2013-09-26 20:12:00,
2013-09-26 16:23:00,67.0,56.0,29.94,SE,126,2.0,15.0,68,0.00,,,0.00,,2013-09-26 20:23:00,
2013-09-26 16:43:00,67.0,56.0,29.95,East,82,1.0,10.0,69,0.00,,,0.00,,2013-09-26 20:43:00,
2013-09-26 16:52:00,67.0,56.0,29.95,ESE,118,4.0,10.0,67,0.00,,,0.00,,2013-09-26 20:52:00,
2013-09-26 17:12:00,67.0,56.0,29.95,ENE,61,0.0,4.0,68,0.00,,,0.00,,2013-09-26 21:12:00,
2013-09-26 17:23:00,67.0,56.0,29.95,ESE,108,3.0,9.0,68,0.00,,,0.00,,2013-09-26 21:23:00,
2013-09-26 17:54:00,65.0,56.0,29.96,East,85,0.0,7.0,72,0.00,,,0.00,,2013-09-26 21:54:00,
2013-09-26 18:14:00,65.0,56.0,29.96,ESE,111,1.0,7.0,74,0.00,,,0.00,,2013-09-26 22:14:00,
2013-09-26 18:24:00,64.0,56.0,29.96,ESE,103,1.0,6.0,74,0.00,,,0.00,,2013-09-26 22:24:00,
2013-09-26 18:43:00,64.0,56.0,29.96,ESE,103,0.0,2.0,75,0.00,,,0.00,,2013-09-26 22:43:00,
2013-09-26 18:54:00,64.0,56.0,29.96,ESE,103,0.0,8.0,75,0.00,,,0.00,,2013-09-26 22:54:00,
2013-09-26 19:12:00,63.0,56.0,29.96,ESE,103,0.0,6.0,77,0.00,,,0.00,,2013-09-26 23:12:00,
2013-09-26 19:23:00,63.0,56.0,29.96,ESE,103,0.0,3.0,79,0.00,,,0.00,,2013-09-26 23:23:00,
2013-09-26 19:53:00,62.0,56.0,29.97,ESE,103,0.0,0.0,81,0.00,,,0.00,,2013-09-26 23:53:00,
2013-09-26 20:22:00,61.0,55.0,29.97,ESE,103,0.0,0.0,82,0.00,,,0.00,,2013-09-27 00:22:00,
2013-09-26 20:43:00,60.0,55.0,29.99,ESE,103,0.0,0.0,84,0.00,,,0.00,,2013-09-27 00:43:00,
2013-09-26 20:52:00,59.0,54.0,29.99,ESE,103,0.0,0.0,85,0.00,,,0.00,,2013-09-27 00:52:00,
2013-09-26 21:12:00,58.0,54.0,29.99,ESE,103,0.0,0.0,87,0.00,,,0.00,,2013-09-27 01:12:00,
2013-09-26 21:23:00,58.0,54.0,29.99,ESE,103,0.0,0.0,88,0.00,,,0.00,,2013-09-27 01:23:00,
2013-09-26 21:42:00,58.0,55.0,30.00,ESE,103,0.0,0.0,89,0.00,,,0.00,,2013-09-27 01:42:00,
2013-09-26 21:52:00,57.0,54.0,30.00,ESE,103,0.0,0.0,89,0.00,,,0.00,,2013-09-27 01:52:00,
2013-09-26 22:12:00,57.0,54.0,30.01,ESE,103,0.0,0.0,91,0.00,,,0.00,,2013-09-27 02:12:00,
2013-09-26 22:22:00,57.0,54.0,30.01,ESE,103,0.0,0.0,91,0.00,,,0.00,,2013-09-27 02:22:00,
2013-09-26 22:43:00,57.0,54.0,30.01,ESE,103,0.0,0.0,91,0.00,,,0.00,,2013-09-27 02:43:00,
2013-09-26 22:53:00,57.0,54.0,30.01,ESE,103,0.0,0.0,91,0.00,,,0.00,,2013-09-27 02:53:00,
2013-09-26 23:12:00,57.0,55.0,30.02,ESE,103,0.0,1.0,92,0.00,,,0.00,,2013-09-27 03:12:00,
2013-09-26 23:22:00,58.0,55.0,30.02,ESE,103,0.0,0.0,91,0.00,,,0.00,,2013-09-27 03:22:00,
2013-09-26 23:55:00,59.0,55.0,30.02,ESE,103,0.0,0.0,87,0.00,,,0.00,,2013-09-27 03:55:00,